TCA7013 MROC-MSLP

Flight info

Callsign TCA7013
Flight time 0h 55m
Altitude 36000
Route NANJO4U ULAPO DCT ALTEG UG436 AMUVO AMUVO2M
Aircraft A319/M-SDE3FGHIRWY/LB1

Departure

Time 2026-04-25 20:34
Airport Juan Santamaría International Airport (MROC)

Arrival

Time 2026-04-25 21:29
Airport El Salvador International Airport Saint Óscar Arnulfo Romero y Galdámez (MSLP)
Time Latitude Longitude Altitude Speed Heading
2026-04-25 20:07 9.99741 -84.20385 3035 ft 0 kts 339°
2026-04-25 20:25 9.99712 -84.20375 3035 ft 4 kts 349°
2026-04-25 20:25 9.99694 -84.20373 3034 ft 4 kts
2026-04-25 20:25 9.99679 -84.20374 3034 ft 1 kts
2026-04-25 20:28 9.99684 -84.20373 3034 ft 1 kts
2026-04-25 20:29 9.99688 -84.20367 3034 ft 1 kts 61°
2026-04-25 20:29 9.99693 -84.20345 3034 ft 8 kts 77°
2026-04-25 20:29 9.99711 -84.20286 3034 ft 10 kts 69°
2026-04-25 20:29 9.99736 -84.20219 3034 ft 11 kts 69°
2026-04-25 20:30 9.99763 -84.20145 3034 ft 11 kts 69°
2026-04-25 20:30 9.99792 -84.20068 3034 ft 12 kts 69°
2026-04-25 20:30 9.99786 -84.20018 3034 ft 0 kts 126°
2026-04-25 20:30 9.99785 -84.20017 3036 ft 0 kts 126°
2026-04-25 20:31 9.99784 -84.20015 3036 ft 2 kts 126°
2026-04-25 20:31 9.99778 -84.20010 3033 ft 2 kts 143°
2026-04-25 20:31 9.99745 -84.19955 3037 ft 17 kts 99°
2026-04-25 20:31 9.99780 -84.19832 3041 ft 18 kts 70°
2026-04-25 20:32 9.99820 -84.19721 3047 ft 15 kts 70°
2026-04-25 20:32 9.99848 -84.19632 3052 ft 12 kts 75°
2026-04-25 20:32 9.99874 -84.19593 3054 ft 2 kts 305°
2026-04-25 20:32 9.99863 -84.19624 3052 ft 7 kts 246°
2026-04-25 20:33 9.99858 -84.19637 3052 ft 0 kts 249°
2026-04-25 20:33 9.99854 -84.19649 3050 ft 15 kts 249°
2026-04-25 20:33 9.99719 -84.20010 3038 ft 93 kts 249°
2026-04-25 20:33 9.99531 -84.20512 3037 ft 136 kts 249°
2026-04-25 20:34 9.99046 -84.21789 3945 ft 134 kts 249°
2026-04-25 20:34 9.98690 -84.22672 4368 ft 140 kts 248°
2026-04-25 20:34 9.98261 -84.23695 4336 ft 173 kts 248°
2026-04-25 20:34 9.97850 -84.24903 4674 ft 190 kts 261°
2026-04-25 20:35 9.98067 -84.26283 4915 ft 215 kts 300°
2026-04-25 20:35 9.99176 -84.27401 5316 ft 238 kts 322°
2026-04-25 20:35 10.00630 -84.28361 5775 ft 264 kts 329°
2026-04-25 20:35 10.02235 -84.29343 6433 ft 276 kts 327°
2026-04-25 20:36 10.03881 -84.30419 7226 ft 280 kts 327°
2026-04-25 20:36 10.05532 -84.31558 8107 ft 287 kts 324°
2026-04-25 20:36 10.07162 -84.32742 8922 ft 289 kts 323°
2026-04-25 20:36 10.08784 -84.33954 9672 ft 293 kts 323°
2026-04-25 20:37 10.10416 -84.35191 10281 ft 304 kts 322°
2026-04-25 20:37 10.12179 -84.36556 10517 ft 326 kts 321°
2026-04-25 20:37 10.14028 -84.38033 10662 ft 349 kts 321°
2026-04-25 20:37 10.15987 -84.39616 10803 ft 370 kts 321°
2026-04-25 20:38 10.18044 -84.41276 10929 ft 388 kts 321°
2026-04-25 20:38 10.20205 -84.43015 11122 ft 403 kts 321°
2026-04-25 20:38 10.22417 -84.44790 11568 ft 409 kts 321°
2026-04-25 20:38 10.24665 -84.46586 12117 ft 412 kts 321°
2026-04-25 20:39 10.26932 -84.48393 12661 ft 416 kts 321°
2026-04-25 20:39 10.29210 -84.50206 13219 ft 418 kts 321°
2026-04-25 20:39 10.31512 -84.52037 13750 ft 421 kts 321°
2026-04-25 20:39 10.33043 -84.53255 14082 ft 423 kts 321°
2026-04-25 20:40 10.36127 -84.55707 14726 ft 427 kts 322°
2026-04-25 20:40 10.38478 -84.57574 15181 ft 430 kts 322°
2026-04-25 20:40 10.40835 -84.59446 15625 ft 432 kts 322°
2026-04-25 20:40 10.43214 -84.61337 16047 ft 435 kts 322°
2026-04-25 20:41 10.45602 -84.63241 16463 ft 437 kts 322°
2026-04-25 20:41 10.47993 -84.65149 16843 ft 439 kts 322°
2026-04-25 20:41 10.50408 -84.67077 17212 ft 443 kts 322°
2026-04-25 20:41 10.52835 -84.69017 17593 ft 444 kts 322°
2026-04-25 20:42 10.55266 -84.70958 17963 ft 446 kts 322°
2026-04-25 20:42 10.57719 -84.72913 18313 ft 449 kts 322°
2026-04-25 20:42 10.60177 -84.74878 18659 ft 451 kts 322°
2026-04-25 20:42 10.62653 -84.76857 18992 ft 454 kts 322°
2026-04-25 20:43 10.65144 -84.78847 19297 ft 456 kts 322°
2026-04-25 20:43 10.67629 -84.80851 19594 ft 458 kts 320°
2026-04-25 20:43 10.69962 -84.83080 19893 ft 461 kts 316°
2026-04-25 20:43 10.72275 -84.85351 20166 ft 463 kts 316°
2026-04-25 20:44 10.74591 -84.87622 20432 ft 464 kts 316°
2026-04-25 20:44 10.76928 -84.89911 20706 ft 467 kts 316°
2026-04-25 20:44 10.79263 -84.92198 20944 ft 468 kts 316°
2026-04-25 20:44 10.81613 -84.94500 21145 ft 469 kts 316°
2026-04-25 20:45 10.83972 -84.96812 21369 ft 471 kts 316°
2026-04-25 20:45 10.86329 -84.99118 21546 ft 469 kts 317°
2026-04-25 20:45 10.88700 -85.01417 21674 ft 470 kts 317°
2026-04-25 20:45 10.91064 -85.03726 21763 ft 472 kts 316°
2026-04-25 20:46 10.93424 -85.06051 21897 ft 474 kts 316°
2026-04-25 20:46 10.95796 -85.08396 22046 ft 476 kts 316°
2026-04-25 20:46 10.98166 -85.10740 22195 ft 476 kts 316°
2026-04-25 20:46 11.00550 -85.13091 22327 ft 477 kts 316°
2026-04-25 20:47 11.02939 -85.15448 22452 ft 478 kts 315°
2026-04-25 20:47 11.05103 -85.18024 22586 ft 481 kts 307°
2026-04-25 20:47 11.06877 -85.20912 22734 ft 483 kts 300°
2026-04-25 20:47 11.08492 -85.23914 22861 ft 484 kts 299°
2026-04-25 20:48 11.10102 -85.26918 22988 ft 485 kts 299°
2026-04-25 20:48 11.11733 -85.29930 23113 ft 486 kts 300°
2026-04-25 20:48 11.13376 -85.32932 23237 ft 487 kts 300°
2026-04-25 20:48 11.15036 -85.35947 23368 ft 488 kts 300°
2026-04-25 20:49 11.16679 -85.38930 23512 ft 490 kts 300°
2026-04-25 20:49 11.18358 -85.41993 23660 ft 490 kts 300°
2026-04-25 20:49 11.19995 -85.44990 23784 ft 491 kts 301°
2026-04-25 20:49 11.21678 -85.48076 23911 ft 492 kts 300°
2026-04-25 20:50 11.23305 -85.51082 24038 ft 493 kts 300°
2026-04-25 20:50 11.24961 -85.54145 24166 ft 493 kts 300°
2026-04-25 20:50 11.26617 -85.57201 24289 ft 494 kts 300°
2026-04-25 20:50 11.28286 -85.60267 24415 ft 494 kts 300°
2026-04-25 20:51 11.29957 -85.63334 24542 ft 495 kts 300°
2026-04-25 20:51 11.31624 -85.66392 24667 ft 495 kts 300°
2026-04-25 20:51 11.33302 -85.69467 24823 ft 497 kts 300°
2026-04-25 20:51 11.34981 -85.72550 25078 ft 501 kts 299°
2026-04-25 20:52 11.36673 -85.75651 25485 ft 498 kts 300°
2026-04-25 20:52 11.37804 -85.77729 25735 ft 495 kts 300°
2026-04-25 20:52 11.40000 -85.81785 26098 ft 493 kts 299°
2026-04-25 20:52 11.41655 -85.84845 26319 ft 492 kts 299°
2026-04-25 20:53 11.43307 -85.87901 26551 ft 492 kts 299°
2026-04-25 20:53 11.44954 -85.90946 26760 ft 492 kts 299°
2026-04-25 20:53 11.46609 -85.93999 27001 ft 491 kts 299°
2026-04-25 20:53 11.48262 -85.97043 27247 ft 490 kts 299°
2026-04-25 20:54 11.49906 -86.00074 27460 ft 489 kts 299°
2026-04-25 20:54 11.51555 -86.03114 27711 ft 489 kts 299°
2026-04-25 20:54 11.53194 -86.06144 27955 ft 489 kts 299°
2026-04-25 20:54 11.54837 -86.09182 28214 ft 489 kts 299°
2026-04-25 20:55 11.56479 -86.12216 28496 ft 488 kts 299°
2026-04-25 20:55 11.58117 -86.15236 28778 ft 487 kts 299°
2026-04-25 20:55 11.59735 -86.18223 29078 ft 487 kts 299°
2026-04-25 20:55 11.61384 -86.21276 29376 ft 485 kts 299°
2026-04-25 20:56 11.62991 -86.24255 29652 ft 485 kts 299°
2026-04-25 20:56 11.64619 -86.27273 29951 ft 485 kts 298°
2026-04-25 20:56 11.66240 -86.30279 30249 ft 484 kts 299°
2026-04-25 20:56 11.67862 -86.33285 30572 ft 483 kts 298°
2026-04-25 20:57 11.69481 -86.36280 30917 ft 481 kts 298°
2026-04-25 20:57 11.71089 -86.39253 31279 ft 479 kts 298°
2026-04-25 20:57 11.72695 -86.42221 31655 ft 476 kts 298°
2026-04-25 20:57 11.74287 -86.45168 32045 ft 474 kts 298°
2026-04-25 20:58 11.75872 -86.48108 32437 ft 471 kts 297°
2026-04-25 20:58 11.77448 -86.51033 32822 ft 469 kts 297°
2026-04-25 20:58 11.79012 -86.53935 33227 ft 466 kts 297°
2026-04-25 20:58 11.80572 -86.56831 33639 ft 464 kts 297°
2026-04-25 20:59 11.82124 -86.59712 34051 ft 461 kts 297°
2026-04-25 20:59 11.83662 -86.62566 34476 ft 458 kts 297°
2026-04-25 20:59 11.85197 -86.65414 34880 ft 456 kts 297°
2026-04-25 20:59 11.86720 -86.68244 35266 ft 455 kts 297°
2026-04-25 21:00 11.88240 -86.71077 35610 ft 454 kts 297°
2026-04-25 21:00 11.88734 -86.71998 35718 ft 454 kts 297°
2026-04-25 21:00 11.92781 -86.79533 35857 ft 451 kts 297°
2026-04-25 21:01 11.94293 -86.82347 35860 ft 451 kts 297°
2026-04-25 21:01 11.97291 -86.87922 35864 ft 451 kts 297°
2026-04-25 21:02 12.00324 -86.93578 35859 ft 452 kts 297°
2026-04-25 21:02 12.03339 -86.99204 35862 ft 451 kts 297°
2026-04-25 21:03 12.06335 -87.04792 35852 ft 451 kts 297°
2026-04-25 21:03 12.09346 -87.10408 35863 ft 451 kts 297°
2026-04-25 21:04 12.12354 -87.16029 35863 ft 450 kts 297°
2026-04-25 21:04 12.15363 -87.21648 35879 ft 451 kts 297°
2026-04-25 21:05 12.18375 -87.27283 35868 ft 451 kts 297°
2026-04-25 21:05 12.21380 -87.32909 35882 ft 450 kts 297°
2026-04-25 21:06 12.24379 -87.38528 35870 ft 450 kts 297°
2026-04-25 21:06 12.27384 -87.44142 35870 ft 450 kts 297°
2026-04-25 21:07 12.30378 -87.49762 35867 ft 449 kts 297°
2026-04-25 21:07 12.33366 -87.55379 35867 ft 450 kts 297°
2026-04-25 21:08 12.36370 -87.60998 35882 ft 451 kts 297°
2026-04-25 21:08 12.39373 -87.66619 35866 ft 450 kts 297°
2026-04-25 21:09 12.43859 -87.75062 35877 ft 450 kts 297°
2026-04-25 21:09 12.46845 -87.80689 35869 ft 450 kts 297°
2026-04-25 21:10 12.49819 -87.86286 35871 ft 450 kts 297°
2026-04-25 21:10 12.52805 -87.91923 35002 ft 456 kts 297°
2026-04-25 21:11 12.54327 -87.94797 34087 ft 461 kts 297°
2026-04-25 21:11 12.55921 -87.97653 33308 ft 462 kts 302°
2026-04-25 21:11 12.57869 -88.00286 32423 ft 465 kts 308°
2026-04-25 21:11 12.59919 -88.02845 31293 ft 466 kts 308°
2026-04-25 21:12 12.61983 -88.05429 29921 ft 470 kts 308°
2026-04-25 21:12 12.64059 -88.08038 28602 ft 472 kts 309°
2026-04-25 21:12 12.66144 -88.10628 27348 ft 474 kts 312°
2026-04-25 21:12 12.66917 -88.11457 26918 ft 475 kts 315°
2026-04-25 21:13 12.71012 -88.15264 24828 ft 483 kts 318°
2026-04-25 21:13 12.72666 -88.16814 23989 ft 485 kts 318°
2026-04-25 21:13 12.75131 -88.19146 22733 ft 483 kts 318°
2026-04-25 21:13 12.77592 -88.21479 21477 ft 480 kts 318°
2026-04-25 21:14 12.80027 -88.23788 20436 ft 474 kts 318°
2026-04-25 21:14 12.82428 -88.26064 19453 ft 466 kts 318°
2026-04-25 21:14 12.84790 -88.28300 18789 ft 454 kts 318°
2026-04-25 21:14 12.87072 -88.30465 17981 ft 444 kts 318°
2026-04-25 21:15 12.89324 -88.32604 17064 ft 437 kts 317°
2026-04-25 21:15 12.91546 -88.34707 16122 ft 431 kts 318°
2026-04-25 21:15 12.93734 -88.36775 15216 ft 426 kts 318°
2026-04-25 21:15 12.95903 -88.38817 14333 ft 420 kts 318°
2026-04-25 21:16 12.98045 -88.40825 13503 ft 416 kts 318°
2026-04-25 21:16 13.00168 -88.42808 12688 ft 410 kts 318°
2026-04-25 21:16 13.02252 -88.44771 11842 ft 401 kts 317°
2026-04-25 21:16 13.04270 -88.46726 10916 ft 399 kts 316°
2026-04-25 21:17 13.06278 -88.48694 10092 ft 399 kts 316°
2026-04-25 21:17 13.08253 -88.50655 9681 ft 386 kts 316°
2026-04-25 21:17 13.10095 -88.52533 9563 ft 362 kts 313°
2026-04-25 21:17 13.11821 -88.54319 9440 ft 342 kts 315°
2026-04-25 21:18 13.13463 -88.55997 9316 ft 326 kts 315°
2026-04-25 21:18 13.15043 -88.57596 9190 ft 312 kts 315°
2026-04-25 21:18 13.16562 -88.59122 9058 ft 298 kts 315°
2026-04-25 21:18 13.18018 -88.60583 8708 ft 290 kts 315°
2026-04-25 21:19 13.19452 -88.62027 8254 ft 287 kts 315°
2026-04-25 21:19 13.20872 -88.63456 7765 ft 285 kts 315°
2026-04-25 21:19 13.22278 -88.64872 7294 ft 283 kts 315°
2026-04-25 21:19 13.23687 -88.66290 6929 ft 283 kts 315°
2026-04-25 21:20 13.25084 -88.67696 6574 ft 281 kts 314°
2026-04-25 21:20 13.26008 -88.68626 6339 ft 280 kts 315°
2026-04-25 21:20 13.27867 -88.70492 5849 ft 278 kts 314°
2026-04-25 21:20 13.29241 -88.71878 5488 ft 277 kts 314°
2026-04-25 21:21 13.30607 -88.73261 5136 ft 275 kts 314°
2026-04-25 21:21 13.31958 -88.74642 4787 ft 273 kts 315°
2026-04-25 21:21 13.33327 -88.76015 4463 ft 273 kts 315°
2026-04-25 21:21 13.34669 -88.77355 4099 ft 271 kts 315°
2026-04-25 21:22 13.36028 -88.78722 3722 ft 270 kts 314°
2026-04-25 21:22 13.37347 -88.80053 3328 ft 269 kts 314°
2026-04-25 21:22 13.38680 -88.81399 3015 ft 268 kts 314°
2026-04-25 21:22 13.40006 -88.82737 2979 ft 268 kts 315°
2026-04-25 21:23 13.41334 -88.84078 2985 ft 269 kts 314°
2026-04-25 21:23 13.42663 -88.85429 2986 ft 270 kts 314°
2026-04-25 21:23 13.43997 -88.86786 2979 ft 269 kts 314°
2026-04-25 21:23 13.45295 -88.88100 2987 ft 254 kts 314°
2026-04-25 21:24 13.46501 -88.89323 3001 ft 236 kts 313°
2026-04-25 21:24 13.47637 -88.90468 3006 ft 220 kts 314°
2026-04-25 21:24 13.48687 -88.91525 3020 ft 201 kts 314°
2026-04-25 21:24 13.49621 -88.92472 2995 ft 177 kts 313°
2026-04-25 21:25 13.50211 -88.93482 2992 ft 159 kts 283°
2026-04-25 21:25 13.50288 -88.94572 3002 ft 152 kts 259°
2026-04-25 21:25 13.49914 -88.95560 2993 ft 146 kts 237°
2026-04-25 21:25 13.49218 -88.96277 2650 ft 141 kts 213°
2026-04-25 21:26 13.48375 -88.96739 2278 ft 135 kts 211°
2026-04-25 21:26 13.47644 -88.97318 1917 ft 130 kts 222°
2026-04-25 21:26 13.47039 -88.97997 1680 ft 128 kts 233°
2026-04-25 21:26 13.46571 -88.98757 1503 ft 125 kts 242°
2026-04-25 21:27 13.46238 -88.99580 1327 ft 124 kts 250°
2026-04-25 21:27 13.45941 -89.00409 1143 ft 124 kts 249°
2026-04-25 21:27 13.45650 -89.01246 846 ft 123 kts 251°
2026-04-25 21:27 13.45352 -89.02071 644 ft 123 kts 249°
2026-04-25 21:28 13.45049 -89.02894 478 ft 123 kts 249°
2026-04-25 21:28 13.44761 -89.03722 229 ft 121 kts 248°
2026-04-25 21:28 13.44468 -89.04518 101 ft 112 kts 248°
2026-04-25 21:28 13.44255 -89.05111 95 ft 64 kts 251°
2026-04-25 21:29 13.44219 -89.05317 94 ft 16 kts 320°
2026-04-25 21:29 13.44244 -89.05335 95 ft 3 kts 333°
2026-04-25 21:29 13.44273 -89.05346 93 ft 4 kts 341°
2026-04-25 21:29 13.44287 -89.05351 95 ft 3 kts 340°
2026-04-25 21:30 13.44324 -89.05365 92 ft 8 kts 340°
2026-04-25 21:30 13.44399 -89.05401 92 ft 14 kts 315°
2026-04-25 21:30 13.44397 -89.05503 92 ft 16 kts 250°
2026-04-25 21:30 13.44368 -89.05581 91 ft 19 kts 249°
2026-04-25 21:31 13.44310 -89.05742 93 ft 9 kts 249°
2026-04-25 21:31 13.44331 -89.05789 92 ft 6 kts 349°
2026-04-25 21:31 13.44364 -89.05797 91 ft 2 kts 341°
2026-04-25 21:31 13.44381 -89.05803 91 ft 0 kts 341°
2026-04-25 21:32 13.44386 -89.05805 94 ft 0 kts 341°